{"data":{"norad_id":69725,"intl_designator":"2026-147X","name":"STARLINK-38021","alt_names":[],"object_type":"PAYLOAD","status":"ACTIVE","operator":null,"country":"US","launch_date":"2026-06-28","launch_site_code":"AFWTR","launch_vehicle":null,"mission":null,"orbit_class":"UNKNOWN","rcs_meters":null,"size_class":null,"mass_kg":null,"dimensions":null,"purposes":["comms"],"wikipedia_slug":null,"has_3d_model":false,"image_url":null,"decayed_at":null,"tle_current":{"epoch":"2026-09-20T03:32:33.919584Z","epoch_age_seconds":52104,"freshness":"FRESH","line1":"1 69725U 26147X   26263.14761481  .00011451  00000+0  35637-3 0  9998","line2":"2 69725  97.2850 299.5701 0001647  86.7063 273.4368 15.33455121 14180","mean_motion":15.33455121,"eccentricity":0.0001647,"inclination_deg":97.285,"raan_deg":299.5701,"arg_perigee_deg":86.7063,"mean_anomaly_deg":273.4368,"bstar":0.00035637,"rev_number":1418,"period_min":93.905584863869,"perigee_km":464.38591250333,"apogee_km":466.64021083364,"semimajor_km":6843.6500616685,"source":"CELESTRAK","updated_at":"2026-09-20T09:00:44.285134Z"}}}